Location: Stara Lesna
(49.1528°N, 20.2911°E)
Time: 07:50:43
(UTC+02:00)

ERS-1 - Pass Details

Date: 21 September 2019
Orbit: 743 x 789 km, 98.6° (Epoch: 19 October)

Event Time Altitude Azimuth Distance (km) Brightness Sun altitude
Rises 03:31:08 0° 13° (NNE) 3,248 8.5 -26.9°
Reaches altitude 10° 03:33:26 10° 13° (NNE) 2,324 7.6 -26.6°
Maximum altitude 03:38:34 80° 287° (WNW) 794 4.4 -26.0°
Enters shadow 03:38:37 80° 276° (W) 795 4.4 -26.0°
